www.pogodaiklimat.ru

Погода и климат >> Архив погоды >> Греция >> Кастория


ПОГОДА в Кастории

  • Прогноз погоды в Кастории
  • Монитор погоды в Кастории

АРХИВ ПОГОДЫ в Кастории

Время (UTC), дата Ветер
(напр.,м/с)
 
Видим.   Явления Облачность Т
(С)
Тd
(С)
f
(%)
Тe
(С)
Тes
(С)
Комфортность P
(гПа)
Po
(гПа)
Тmin
(С)
Tmax
(С)
R
(мм)
R24
(мм)
S
(см)
06 12.07 штиль 0
{3}
20 км 3/1 600 м
[Cu med, cong Ac trans]
+17.0 +10.6 66 +17 +23 1014.3 939.0 +11.1
09 12.07 Ю 2
{4}
20 км 1/1 600 м
[Cu med, cong]
+23.4 +7.2 35 +24 +40 комфорт 1011.8 938.3
12 12.07 С 4
{9}
20 км 5/4 600 м
[Cu med, cong Ac trans]
+25.4 +6.3 29 +25 +31 комфорт 1009.8 937.0
15 12.07 З 2
{6}
н/о н/о +25.5 +10.0 38 +26 +26 жарко 1008.4 935.6
18 12.07 З 2
{11}
15 км {гроза, дождь} 9/4 750 м
[Cu med, cong Ac und Ci sp]
+19.8 +14.0 69 +22 +22 комфорт 1010.8 936.5 +28.1 4
21 12.07 СЗ 2
{4}
н/о н/о +18.4 +10.0 58 +19 +19 1012.7 937.9
00 13.07 нст 1
{4}
н/о н/о +14.0 +10.1 77 +14 +14 1013.8 937.8
03 13.07
{3}
н/о н/о +11.2 +9.1 87 1014.5 937.8
06 13.07 штиль 0
{3}
20 км 1/1 600 м
[Cu med, cong]
+17.0 +10.0 63 +17 +24 1013.3 938.2 +10.7
09 13.07
{3}
н/о н/о +23.4 +4.2 29 1010.3 936.9
12 13.07 нст 1
{5}
н/о н/о +25.3 +7.8 33 +25 +25 комфорт 1008.2 935.4
15 13.07 СВ 4
{6}
н/о в посл. час осадки н/о +25.1 +11.4 42 +26 +26 жарко 1006.4 933.7
18 13.07 СЗ 2
{5}
10 км слаб. дождь 9/6 750 м
[Sc Ac und]
+21.6 +15.0 66 +25 +25 комфорт 1006.8 933.2 +27.3 0.1
21 13.07 З 1
{6}
н/о осадки н/о +18.3 +13.2 72 +20 +20 1008.5 934.0
00 14.07 СЗ 3
{4}
н/о {осадки} н/о +16.9 +12.8 77 +17 +17 1007.8 933.0 0.3
03 14.07 СЗ 2
{4}
н/о н/о +16.1 +12.5 79 +16 +16 1007.1 932.2
06 14.07 нст 2
{6}
н/о в посл. час осадки н/о +17.2 +13.3 78 +18 +18 1007.3 932.6 +17.0 2
09 14.07 СВ 4
{6}
20 км 5/4 600 м
[Cu med, cong Ac und]
+21.6 +10.9 51 +23 +30 комфорт 1006.0 932.4
12 14.07 СВ 6
{9}
20 км 5/4 600 м
[Cu med, cong Ac und]
+24.8 +8.6 36 +25 +29 комфорт 1004.7 932.1
15 14.07 СЗ 5
{9}
н/о н/о +24.1 +7.8 35 +24 +24 комфорт 1004.7 931.9
18 14.07 С 3
{9}
н/о н/о +20.7 +10.2 51 +23 +23 комфорт 1007.3 933.4 +21.3
21 14.07
{6}
н/о н/о +18.4 +9.5 56 1009.6 935.0
00 15.07 СЗ 2
{4}
н/о н/о +15.5 +9.8 69 +15 +15 1010.4 935.0
03 15.07 З 2
{4}
н/о н/о +13.6 +9.6 77 +13 +13 1010.7 934.9
06 15.07 З 2
{4}
20 км 8/5 750 м
[Cu med, cong Ac trans]
+16.2 +10.6 69 +16 +18 1011.0 935.7 +13.2
09 15.07 ЮВ 3
{5}
20 км 8/4 900 м
[Cu med, cong Ac trans Cs]
+23.2 +9.5 42 +25 +31 комфорт 1008.4 935.1
12 15.07 Ю 3
{6}
20 км 6/4 600 м
[Cu med, cong Ac trans Ci fib]
+25.6 +9.5 36 +26 +33 жарко 1006.4 933.8
15 15.07 Ю 4
{6}
н/о н/о +22.6 +11.1 48 +25 +25 комфорт 1007.1 933.7
18 15.07 В 2
{6}
15 км слаб. дождь 9/6 750 м
[Sc Ac As]
+19.4 +13.3 68 +21 +21 комфорт 1009.0 934.8 +26.9 0.0
21 15.07 нст 1
{4}
н/о осадки н/о +17.6 +15.4 87 +19 +19 1010.7 935.8
00 16.07 нст 1
{4}
н/о осадки н/о +15.5 +13.9 90 +17 +17 1011.0 935.6 7
03 16.07 СЗ 2
{4}
н/о осадки н/о +15.2 +13.7 91 +15 +15 1010.1 934.8
06 16.07 З 2
{4}
10 км {дождь} 9/8 120 м
[St As op]
+15.8 +13.5 86 +16 +16 1010.1 934.8 +15.0 11
09 16.07 штиль 0
{3}
10 км слаб. дождь 10/9 90 м
[St As op]
+15.8 +13.0 83 +16 +16 1010.5 935.2
12 16.07 С 3
{5}
8000 м дождь 10/9 120 м
[St As op]
+16.4 +13.1 81 +16 +17 1009.5 934.5 8
15 16.07 нст 2
{6}
н/о осадки н/о +16.0 +13.8 87 +16 +16 1009.8 934.6
18 16.07 штиль 0
{4}
10 км слаб. дождь 10/8 180 м
[St As op]
+15.8 +12.8 82 +16 +16 1010.2 934.9 +17.1 13
21 16.07 С 3
{9}
н/о осадки н/о +15.0 +12.0 82 +14 +14 1011.5 935.9
00 17.07 нст 2
{4}
н/о {осадки} н/о +14.6 +11.9 84 +14 +14 1011.3 935.7 3
03 17.07 СЗ 3
{5}
н/о {осадки} н/о +15.2 +11.5 79 +15 +15 1011.0 935.5
06 17.07 СЗ 2
{5}
15 км 9/5 750 м
[Sc Ac und]
+18.2 +11.5 65 +19 +20 1011.3 936.5 +14.4 3
09 17.07 С 6
{9}
20 км 5/4 600 м
[Sc diur, vesp Ac trans]
+22.0 +7.3 39 +23 +27 комфорт 1010.1 936.4
12 17.07 СВ 5
{8}
20 км 3/3 600 м
[Cu med, cong Ac trans]
+24.4 +5.6 30 +24 +31 комфорт 1009.1 936.1
15 17.07
{7}
н/о н/о +25.2 +5.0 27 1008.7 935.8
18 17.07 СВ 2
{6}
20 км 1/1 1000 м
[Cu med, cong Ac trans]
+21.6 +8.3 42 +23 +23 комфорт 1009.7 935.9 +26.2
21 17.07 СЗ 2
{4}
н/о н/о +16.1 +9.2 64 +16 +16 1012.7 937.3
00 18.07 нст 2
{3}
н/о н/о +13.5 +9.1 75 +13 +13 1013.8 937.7
03 18.07 СЗ 2
{4}
н/о н/о +12.7 +8.5 76 +12 +12 1014.2 937.9
06 18.07 штиль 0
{4}
10 км ясно +17.4 +9.6 60 +17 +25 1013.6 938.4 +12.1
09 18.07 Ю 2
{4}
10 км 3/3 600 м
[Cu med, cong]
+25.4 +7.0 31 +25 +37 комфорт 1011.5 938.4
12 18.07 СВ 2
{5}
10 км 3/3 600 м
[Cu med, cong]
+27.2 +4.5 23 +26 +38 жарко 1010.3 937.8
18 18.07 нст 1
{2}
н/о н/о +23.0 +11.4 48 +25 +25 комфорт 1011.2 937.7
21 18.07
{4}
н/о н/о +17.9 +12.3 70 1014.7 939.6
00 19.07 нст 2
{4}
н/о н/о +16.1 +10.6 70 +16 +16 1016.0 940.4
03 19.07 З 2
{4}
н/о н/о +14.0 +10.5 79 +13 +13 1016.8 940.6

 

Местоположение метеостанции Кастория (Греция): широта 40.45 долгота 21.28 высота над уровнем моря 604 м.

В архиве по умолчанию представлена погода в Кастории за последнюю неделю. Архивные данные за месяц целиком и за предыдущие месяцы, начиная с января 2011 года, Вы можете получить, выбрав интересующий диапазон дат из раскрывающегося списка и нажав кнопку "Ввод!".


*Определитесь, кто Вы:
робот инопланетянин человек

Внимание! Время в таблицах - всемирное. Для получения местного времени необходимо прибавить поправку, которая равна 2 ч.

Смотрите также архив погоды в соседних городах и на ближайших метеорологических станциях:

Погода во Флорине (Греция) (38 км)
Погода в Козани (Греция) (46 км)
Погода в Корке (Албания) (46 км)
Погода в Преторе (Македония) (48 км)
Погода в Конице (Греция) (64 км)
Погода в Битоле (Македония) (67 км)
Погода в Охриде (Македония) (82 км)
Погода в Охрид аэропорту (Македония) (85 км)
Погода в Тополчани (Македония) (87 км)
Погода в Янине (Греция) (92 км)

Пояснения к столбцам:

Ветер - указаны скорость ветра в м/с - средняя за 10 мин, порывы в срок и между сроками (в фигурных скобках) и направление, откуда дует ветер: С - северный, СВ - северо-восточный, В - восточный, ЮВ - юго-восточный, Ю - южный, ЮЗ - юго-западный, З - западный, СЗ - северо-западный.
Видимость - горизонтальная дальность видимости в метрах или километрах. При видимости от 1 до 10 км при отсутствии осадков обычно наблюдается дымка, при ухудшении видимости до 1 км и менее - туман. В сухую погоду видимость может ухудшаться дымом, пылью или мглою.
Явления - указаны атмосферные явления, наблюдавшиеся в срок или в последний час перед сроком; фигурными скобками обозначены явления, наблюдавшиеся между сроками (за 1-3 часа до срока); квадратными скобками обозначены град или гололедные отложения с указанием их диаметра в мм.
Облачность - указаны через наклонную черту общая и нижняя облачность в баллах и высота нижней границы облаков в метрах; квадратными скобками обозначены формы облаков: Ci - перистые, Cs - перисто-слоистые, Cc - перисто-кучевые, Ac - высококучевые, As - высокослоистые, Sc - слоисто-кучевые, Ns - слоисто-дождевые, Cu - кучевые, Cb - кучево-дождевые. Подробнее классификацию облаков см. в Атласе облаков (PDF).
T - Температура воздуха - температура, измеренная на высоте 2 м над землей.
Td - Температура точки росы - температура, при понижении до которой содержащийся в воздухе водяной пар достигнет насыщения.
f - Относительная влажность воздуха - влажноcть воздуха, измеренная на высоте 2 м над землей.
Te - Эффективная температура - температура, которую ощущает одетый по сезону человек в тени. Характеристика душности погоды. При расчете учитывается влияние влажности воздуха и скорости ветра на теплоощущения человека.
Tes - Эффективная температура на солнце - температура, которую ощущает человек, с поправкой на солнечный нагрев. Характеристика знойности погоды. Зависит от высоты солнца над горизонтом, облачности и скорости ветра. Ночью, в пасмурную погоду, а также при ветре 12 м/с и более поправка равна нулю.
P - Атмосферное давление - приведенное к уровню моря атмосферное давление.
Po - Атмосферное давление - измеренное на уровне метеостанции атмосферное давление.
Tmin - Минимальная температура - минимум температуры воздуха на высоте 2 м над землей.
Tmax - Максимальная температура - максимум температуры воздуха на высоте 2 м над землей.
R - Количество осадков - Количество выпавших осадков за период времени, мм. При наведении курсора мыши на число - период времени, за который выпало указанное количество осадков.
R24 - Количество осадков - Количество выпавших осадков за 24 часа, мм.
S - Снежный покров - Высота снежного покрова, см. При наведении курсора мыши на число - состояние снежного покрова и степень покрытия местности в баллах.